FW1140 Weather Reports


time (UTC)temp
F
wind
direction
speed
knots
gust
knots
rain 1hr
in
rain 24hr
in
rain mn
in
humidity
%
barometer
mb
20260508011529 56 317 0.9 2.6 0.00 0.00 0.00 31 1007.4
20260508010031 57 341 0.9 3.5 0.00 0.00 0.00 31 1007.3
20260508004532 58 329 3.5 6.1 0.00 0.00 0.00 29 1007.3
20260508003027 59 322 7.0 8.7 0.00 0.00 0.00 27 1007.3
20260508001526 60 342 4.3 8.7 0.00 0.00 0.00 27 1007.3
20260508000029 60 297 7.0 10.4 0.00 0.00 0.00 26 1007.4
20260507234540 60 302 4.3 13.9 0.00 0.00 0.00 26 1007.4
20260507233027 60 336 3.5 11.3 0.00 0.00 0.00 27 1007.6
20260507231525 61 342 7.8 13.9 0.00 0.00 0.00 25 1007.6
20260507230023 60 238 4.3 13.9 0.00 0.00 0.00 25 1007.6
20260507224528 61 324 9.6 14.8 0.00 0.00 0.00 25 1007.6
20260507223021 61 325 8.7 15.6 0.00 0.00 0.00 25 1007.7
20260507221529 60 336 1.7 9.6 0.00 0.00 0.00 25 1007.9
20260507220021 61 311 7.0 15.6 0.00 0.00 0.00 26 1007.9
20260507214519 62 278 11.3 15.6 0.00 0.00 0.00 27 1007.9
20260507213023 61 329 6.1 12.2 0.00 0.00 0.00 26 1008.1
20260507211517 61 347 6.1 16.5 0.00 0.00 0.00 26 1008.3
20260507210021 61 305 10.4 14.8 0.00 0.00 0.00 27 1008.4
20260507204513 60 328 6.1 13.0 0.00 0.00 0.00 27 1008.5
20260507203012 61 311 10.4 16.5 0.00 0.00 0.00 26 1008.6
20260507201509 61 284 7.8 13.9 0.00 0.00 0.00 27 1008.8
20260507200011 60 298 7.8 18.2 0.00 0.00 0.00 28 1009.0
20260507194523 60 296 11.3 17.4 0.00 0.00 0.00 26 1008.9
20260507193007 60 325 10.4 18.2 0.00 0.00 0.00 26 1009.1
20260507191506 59 318 10.4 20.0 0.00 0.00 0.00 23 1009.2
20260507190011 59 309 7.0 16.5 0.00 0.00 0.00 26 1009.1
20260507184503 59 322 9.6 19.1 0.00 0.00 0.00 24 1009.2
20260507183002 59 252 7.8 13.9 0.00 0.00 0.00 26 1009.3
20260507181603 59 320 13.0 20.0 0.00 0.00 0.00 26 1009.5
20260507180103 59 310 8.7 13.9 0.00 0.00 0.00 27 1009.5
20260507174603 56 339 7.0 13.0 0.00 0.00 0.00 30 1009.6
20260507173100 57 347 8.7 23.5 0.00 0.00 0.00 35 1009.8
20260507171549 55 259 6.1 10.4 0.00 0.00 0.00 35 1010.1
20260507170047 55 288 5.2 10.4 0.00 0.00 0.00 36 1010.3
20260507164600 54 341 1.7 6.1 0.00 0.00 0.00 39 1010.3
20260507163038 53 347 6.1 14.8 0.00 0.00 0.00 38 1010.5
20260507161548 52 60 0.9 9.6 0.00 0.00 0.00 41 1010.6
20260507160032 51 329 0.0 5.2 0.00 0.00 0.00 43 1010.6
20260507154526 51 305 3.5 7.8 0.00 0.00 0.00 42 1010.7
20260507153026 50 39 1.7 4.3 0.00 0.00 0.00 44 1010.7
20260507151517 49 2 2.6 6.1 0.00 0.00 0.00 46 1010.6
20260507150014 49 7 0.0 5.2 0.00 0.00 0.00 48 1010.7
20260507144509 47 82 2.6 6.1 0.00 0.00 0.00 53 1010.7
20260507143006 47 111 1.7 5.2 0.00 0.00 0.00 54 1010.8
20260507141604 46 118 1.7 5.2 0.00 0.00 0.00 55 1010.8
20260507140055 45 87 0.9 5.2 0.00 0.00 0.00 56 1011.0
20260507134551 43 60 0.9 3.5 0.00 0.00 0.00 56 1011.0
20260507133050 43 79 0.0 2.6 0.00 0.00 0.00 60 1010.9
20260507131542 41 144 0.9 3.5 0.00 0.00 0.00 63 1010.8
20260507130042 39 134 0.9 2.6 0.00 0.00 0.00 65 1010.9
20260507124539 38 120 0.9 2.6 0.00 0.00 0.00 65 1010.8
20260507123029 37 236 0.0 1.7 0.00 0.00 0.00 68 1010.9
20260507121524 35 236 0.0 0.9 0.00 0.00 0.00 72 1010.9
20260507120020 32 236 0.0 0.0 0.00 0.00 0.00 77 1010.8
20260507114516 31 236 0.0 3.5 0.00 0.00 0.00 77 1010.7
20260507113033 30 236 0.9 3.5 0.00 0.00 0.00 78 1010.7
20260507111509 30 236 2.6 4.3 0.00 0.00 0.00 78 1010.6
20260507110010 29 211 2.6 4.3 0.00 0.00 0.00 78 1010.8
20260507104504 31 228 2.6 3.5 0.00 0.00 0.00 75 1010.9
20260507103101 32 23 0.9 3.5 0.00 0.00 0.00 70 1010.9
20260507101558 34 23 0.0 1.7 0.00 0.00 0.00 70 1011.0
20260507094557 37 115 0.9 5.2 0.00 0.00 0.00 65 1010.8
20260507093052 37 172 4.3 7.0 0.00 0.00 0.00 66 1010.6
20260507091605 38 157 5.2 8.7 0.00 0.00 0.00 62 1010.9
20260507090050 39 171 7.0 12.2 0.00 0.00 0.00 61 1010.9
20260507084600 38 177 7.8 12.2 0.00 0.00 0.00 62 1011.1
20260507083047 38 171 8.7 10.4 0.00 0.00 0.00 62 1011.2
20260507081553 38 146 3.5 5.2 0.00 0.00 0.00 62 1011.3
20260507080045 38 179 2.6 8.7 0.00 0.00 0.00 62 1011.3
20260507074548 38 149 4.3 6.1 0.00 0.00 0.00 63 1011.6
20260507073040 38 142 5.2 7.8 0.00 0.00 0.00 61 1011.6
20260507071537 37 154 4.3 8.7 0.00 0.00 0.00 64 1011.9
20260507070036 37 155 4.3 6.1 0.00 0.00 0.00 65 1012.2
20260507064538 36 162 6.1 8.7 0.00 0.00 0.00 65 1012.1
20260507063035 36 145 5.2 7.0 0.00 0.00 0.00 67 1012.3
20260507061531 37 148 0.0 3.5 0.00 0.00 0.00 65 1012.8
20260507060029 37 146 2.6 5.2 0.00 0.00 0.00 65 1012.7
20260507054527 36 127 0.9 5.2 0.00 0.00 0.00 69 1012.9
20260507053025 36 359 0.0 0.9 0.00 0.00 0.00 64 1013.2
20260507051523 36 359 0.0 0.0 0.00 0.00 0.00 63 1013.2
20260507050026 36 359 0.0 0.0 0.00 0.00 0.00 65 1013.2
20260507044520 36 359 0.0 0.9 0.00 0.00 0.00 64 1013.4
20260507043025 37 359 0.0 0.9 0.00 0.00 0.00 62 1013.4
20260507041519 37 359 0.0 0.9 0.00 0.00 0.00 66 1013.6
20260507040019 38 258 0.0 0.0 0.00 0.00 0.00 63 1013.7
20260507034523 37 258 0.0 1.7 0.00 0.00 0.00 64 1013.7
20260507033018 35 258 0.9 2.6 0.00 0.00 0.00 67 1013.7
20260507031519 36 359 0.0 1.7 0.00 0.00 0.00 63 1013.8
20260507030017 38 359 0.0 0.9 0.00 0.00 0.00 60 1013.7
20260507024519 38 359 0.9 2.6 0.00 0.00 0.00 58 1013.6
20260507023016 37 359 0.9 3.5 0.00 0.00 0.00 61 1013.6
20260507021515 36 359 0.9 2.6 0.00 0.00 0.00 62 1013.3
20260507020022 39 359 1.7 2.6 0.00 0.00 0.00 58 1013.3
20260507014515 42 359 0.0 0.0 0.00 0.00 0.00 54 1013.2
20260507013020 42 359 0.0 1.7 0.00 0.00 0.00 52 1013.1